Overview Statistics Trail Chart Weather Telemetry Raw packets
 

This is the latest recevied weather packets stored in our database for station/object DB0BIN. If no packets are shown the sender has not sent any weather packets the latest 10 day(s).

<< 1 2 3 4 5 6 7 >>
Time Temp. Humidity Pressure Rain* Wind** Luminosity Snow
1788581778 14.44° C - 1018.6 hPa 1.02 mm - - -
1788581478 15° C - 1018.5 hPa 1.02 mm - - -
1788581178 15° C - 1018.4 hPa 0.76 mm - - -
1788580878 15° C - 1018.4 hPa 0.76 mm - - -
1788580578 15.56° C - 1018.4 hPa 0.51 mm - - -
1788580278 16.11° C - 1018.7 hPa 0.25 mm - - -
1788579978 16.67° C - 1018.4 hPa 0 mm - - -
1788579678 17.22° C - 1018.1 hPa 0 mm - - -
1788579378 17.22° C - 1018.4 hPa 0 mm - - -
1788579078 17.78° C - 1018.5 hPa 0 mm - - -
1788578778 18.33° C - 1018.2 hPa 0 mm - - -
1788578478 18.89° C - 1018.1 hPa 0 mm - - -
1788578178 18.89° C - 1018 hPa 0 mm - - -
1788577878 19.44° C - 1017.7 hPa 0 mm - - -
1788577578 19.44° C - 1017.7 hPa 0 mm - - -
1788577278 19.44° C - 1017.7 hPa 0 mm - - -
1788576978 19.44° C - 1017.7 hPa 0 mm - - -
1788576678 19.44° C - 1017.5 hPa 0 mm - - -
1788576378 19.44° C - 1017.5 hPa 0 mm - - -
1788576078 19.44° C - 1017.5 hPa 0 mm - - -
1788575778 19.44° C - 1017.5 hPa 0 mm - - -
1788575478 19.44° C - 1017.4 hPa 0 mm - - -
1788575178 19.44° C - 1017.2 hPa 0 mm - - -
1788574878 19.44° C - 1017.2 hPa 0 mm - - -
1788574578 19.44° C - 1017.2 hPa 0 mm - - -

* Rain latest 24 hours (hover to see other rain measurements)
** Current wind speed in m/s (hover to see current wind gust speed)